Home   Weather   Beaumont   Past weeks

Flag for USA Past Weather in Beaumont, Texas, USA — Yesterday and Last 2 Weeks

Now
71 °F

Mostly cloudy.


Feels Like: 70 °F
Forecast: 67 / 79 °F
Wind: 10 mph from East

Location: Jefferson County Airport

Current Time: Feb 19, 2017 at 10:49:13 am

Latest Report: Feb 19, 2017 at 9:53 am


Visibility: 8 mi

Pressure: 30.00 "Hg

Humidity: 84%

Dew Point: 66 °F

Location of BeaumontLocation

Past Weather in Beaumont — Graph

°F

Beaumont Temperature Yesterday

Maximum temperature yesterday: 81 °F (at 1:53 pm)
Minimum temperature yesterday: 61 °F (at 12:53 am)
Average temperature yesterday: 68 °F

High & Low Weather Summary for the Past Weeks

 TemperatureHumidityPressure
High87 °F (Feb 8, 1:53 pm)100% (Feb 7, 9:07 pm)30.36 "Hg (Feb 7, 9:07 pm)
Low39 °F (Feb 16, 6:53 am)23% (Feb 9, 2:53 pm)29.72 "Hg (Feb 14, 2:53 pm)
Average66 °F80%30.02 "Hg
* Reported Feb 4 9:00 am — Feb 19 8:53 am, Beaumont, Weather by CustomWeather, © 2017

Note: Actual official high and low records may vary slightly from our data, if they occured in-between our weather recording intervals... More about our weather records

Advertising

Beaumont Weather History for the Previous 24 Hours

Scroll right to see more
 ConditionsComfort  
Time TempWeatherWind HumidityBarometerVisibility
8:53 am
Sun, Feb 19
69 °FFog.9 mph90%29.98 "Hg5 mi
8:18 am68 °FFog.8 mph93%29.98 "Hg3 mi
7:53 am68 °FFog.8 mph93%29.98 "Hg4 mi
6:53 am67 °FFog.12 mph93%29.95 "Hg4 mi
5:53 am68 °FFog.7 mph93%29.93 "Hg4 mi
5:27 am68 °FFog.9 mph93%29.93 "Hg5 mi
4:53 am67 °FFog.7 mph93%29.91 "Hg5 mi
4:26 am68 °FFog.9 mph93%29.91 "Hg5 mi
3:53 am67 °FFog.9 mph93%29.90 "Hg6 mi
3:19 am68 °FOvercast.7 mph90%29.90 "Hg7 mi
2:53 am68 °FOvercast.9 mph90%29.90 "Hg7 mi
2:06 am67 °FMostly cloudy.7 mph93%29.91 "Hg9 mi
1:41 am68 °FFog.12 mph93%29.92 "Hg3 mi
1:33 am68 °FFog.12 mph93%29.92 "Hg2 mi
1:01 am68 °FMostly cloudy.9 mph90%29.91 "Hg8 mi
11:53 pm
Sat, Feb 18
67 °FOvercast.9 mph93%29.90 "Hg9 mi
11:37 pm66 °FPassing clouds.9 mph93%29.90 "Hg9 mi
10:53 pm65 °FPassing clouds.7 mph94%29.89 "Hg7 mi
10:21 pm67 °FPassing clouds.8 mph90%29.89 "Hg8 mi
9:53 pm68 °FOvercast.8 mph90%29.88 "Hg10 mi
8:53 pm66 °FMostly cloudy.7 mph93%29.88 "Hg10 mi
8:04 pm68 °FMostly cloudy.9 mph90%29.87 "Hg10 mi
8:00 pm68 °FMostly cloudy.9 mph90%29.87 "Hg10 mi
7:00 pm68 °FPassing clouds.8 mph87%29.85 "Hg10 mi
5:53 pm71 °FOvercast.8 mph81%29.84 "Hg10 mi
4:53 pm73 °FPartly sunny.8 mph76%29.82 "Hg10 mi
3:53 pm77 °FPassing clouds.13 mph64%29.82 "Hg10 mi
2:53 pm79 °FPassing clouds.10 mph62%29.81 "Hg10 mi
1:53 pm81 °FSunny.8 mph53%29.82 "Hg10 mi
12:53 pm78 °FSunny.8 mph60%29.85 "Hg10 mi
11:53 am75 °FSunny.6 mph66%29.87 "Hg10 mi
10:53 am75 °FPartly sunny.9 mph71%29.88 "Hg10 mi
Weather by CustomWeather, © 2017

See weather overviewHow to use our weather pages